User: anonymous   Login
Location: Contre
(49.7477°N, 2.0963°E)
Time: 02:23:56
(UTC+00:00)
Language:

Cosmos 1850 Rocket - Orbit

View from above orbital plane
View from above orbital plane
View from above satellite
View from above satellite

Ground track
Ground track

The orbit data is extracted from the following two-line orbital elements,

1 18096U 87049B   23152.42728605  .00000274  00000-0  10132-3 0  9992
2 18096  74.0406 190.3105 0021777 190.8233 169.2455 14.36896437884032
Epoch (UTC): 01 June 2023 10:15:17
Eccentricity: 0.0021777
inclination: 74.0406°
perigee height: 753 km
apogee height: 784 km
right ascension of ascending node: 190.3105°
argument of perigee: 190.8233°
revolutions per day: 14.36896437
mean anomaly at epoch: 169.2455°
orbit number at epoch: 88403

The dashed part of the orbit path shows where the satellite is in the earth's shadow,  

DLR